Location: Colorado Springs
(38.8340°N, 104.8210°W)
Time: 16:34:00
(UTC-06:00)

Envisat - Pass Details

Date: 14 October 2017
Orbit: 764 x 766 km, 98.2° (Epoch: 23 October)

Event Time Altitude Azimuth Distance (km) Brightness Sun altitude
Exits shadow 21:40:26 21° 307° (NW) 1,657 5.2 -38.8°
Drops below altitude 10° 21:42:35 10° 326° (NW) 2,308 6.0 -39.2°
Sets 21:45:09 0° 336° (NNW) 3,238 6.8 -39.7°
